TERRESTAR-1

Last updated on Mon Oct 14 2024 00:02:38 GMT+0000 (Coordinated Universal Time)

1 35496U 09035A 24287.45598775 -.00000054 00000+0 00000+0 0 9995 2 35496 4.6569 47.9837 0002906 163.4009 224.3020 1.00272183 56027
UTC large
Height (km)
Speed (km/s)
/
Latitude / Longitude
Inclination (degrees)
Orbital Period (minutes)
Azimuth
Elevation
Range (km)
Doppler Factor

Next 0 passes for location: London (51.5072 / 0.1276)

Sorry there are no passes over London.